KG5VSR Weather Reports


time (UTC)temp
C
wind
direction
speed
KPH
gust
KPH
rain 1hr
cm
rain 24hr
cm
rain mn
cm
humidity
%
barometer
mb
20260902201156 36 47 4.8 8.0 0.00 0.00 0.00 46 1012.8
20260902194154 37 325 4.8 8.0 0.00 0.00 0.00 45 1013.5
20260902191154 36 330 1.6 3.2 0.00 0.00 0.00 50 1013.9
20260902184150 36 3 1.6 1.6 0.00 0.00 0.00 50 1014.7
20260902181147 35 39 3.2 4.8 0.00 0.00 0.00 55 1015.1
20260902174142 35 19 6.4 9.7 0.00 0.00 0.00 56 1015.6
20260902171141 33 303 0.0 1.6 0.00 0.00 0.00 59 1016.3
20260902164138 33 333 1.6 3.2 0.00 0.00 0.00 62 1016.7
20260902161135 32 339 1.6 1.6 0.00 0.00 0.00 62 1016.9
20260902154131 32 229 3.2 4.8 0.00 0.00 0.00 64 1016.6
20260902151130 31 241 1.6 3.2 0.00 0.00 0.00 69 1016.6
20260902144130 30 170 1.6 1.6 0.00 0.00 0.00 72 1016.7
20260902141129 29 44 3.2 3.2 0.00 0.00 0.00 74 1016.5
20260902134127 28 190 1.6 1.6 0.00 0.00 0.00 76 1016.0
20260902131127 28 58 1.6 1.6 0.00 0.00 0.00 75 1016.3
20260902124122 27 47 1.6 3.2 0.00 0.00 0.00 79 1016.1
20260902121121 25 1 0.0 0.0 0.00 0.00 0.00 85 1016.1
20260902114117 25 359 0.0 0.0 0.00 0.00 0.00 85 1016.1
20260902111114 25 171 0.0 0.0 0.00 0.00 0.00 85 1016.0
20260902104114 25 172 0.0 0.0 0.00 0.00 0.00 84 1015.9
20260902101114 26 172 0.0 0.0 0.00 0.00 0.00 81 1015.9
20260902094112 26 172 0.0 0.0 0.00 0.00 0.00 80 1015.8
20260902091110 26 172 0.0 0.0 0.00 0.00 0.00 78 1015.9
20260902084110 27 172 0.0 0.0 0.00 0.00 0.00 75 1015.6
20260902081110 27 261 0.0 0.0 0.00 0.00 0.00 74 1015.6
20260902074105 28 144 3.2 3.2 0.00 0.00 0.00 71 1015.9
20260902071102 28 189 1.6 3.2 0.00 0.00 0.00 70 1015.6
20260902064101 29 230 0.0 1.6 0.00 0.00 0.00 69 1015.6
20260902061058 29 126 3.2 4.8 0.00 0.00 0.00 69 1015.9
20260902054055 30 189 3.2 4.8 0.00 0.00 0.00 70 1015.6
20260902051051 30 157 4.8 9.7 0.00 0.00 0.00 69 1015.7
20260902044046 30 191 3.2 3.2 0.00 0.00 0.00 67 1015.8
20260902041043 31 155 1.6 1.6 0.00 0.00 0.00 64 1015.6
20260902034043 31 15 0.0 1.6 0.00 0.00 0.00 60 1015.2
20260902031040 31 291 0.0 0.0 0.00 0.00 0.00 59 1014.9
20260902024036 32 274 0.0 0.0 0.00 0.00 0.00 57 1014.4
20260902021036 32 285 0.0 0.0 0.00 0.00 0.00 56 1014.0
20260902014033 33 244 0.0 1.6 0.00 0.00 0.00 55 1013.5
20260902011031 33 280 0.0 0.0 0.00 0.00 0.00 55 1013.3
20260902004027 35 315 0.0 0.0 0.00 0.00 0.00 51 1013.3
20260902001027 35 189 3.2 3.2 0.00 0.00 0.00 49 1013.3
20260901234025 36 18 0.0 1.6 0.00 0.00 0.00 48 1013.4
20260901231021 35 118 1.6 1.6 0.00 0.00 0.00 49 1013.8
20260901224021 36 60 0.0 0.0 0.00 0.00 0.00 48 1013.7
20260901221017 37 68 0.0 1.6 0.00 0.00 0.00 47 1014.0
20260901214013 37 86 0.0 1.6 0.00 0.00 0.00 46 1014.0
20260901211014 37 221 4.8 8.0 0.00 0.00 0.00 47 1014.2
20260901204008 37 73 1.6 4.8 0.00 0.00 0.00 46 1014.5